SCP
0 0 0 0 0 0 0 0 0 0 0 0 0 0 0 0 0 0 0 0 0 0 0 0 0 1 1 1 1 1 0 0 0 0 0 0 0 0 0 0 0 0 0 0 0 0 0 0 0
0 0 0 0 0 0 0 0 0 0 0 0 0 0 0 0 0 0 0 0 0 0 0 0 0 1 1 1 1 1 0 0 0 0 0 0 0 0 0 0 0 0 0 0 0 0 0 0 0
0 0 0 0 0 0 0 0 0 0 0 0 0 0 0 0 0 0 0 0 0 0 0 0 0 1 1 1 1 1 0 0 0 0 0 0 0 0 0 0 0 0 0 0 0 0 0 0 0
0 0 0 0 0 0 0 0 0 0 0 0 0 0 0 0 0 0 0 0 0 0 0 0 0 1 1 1 1 1 1 0 0 0 0 0 0 0 0 0 0 0 0 0 0 0 0 0 0
0 0 0 0 0 0 0 0 0 0 0 0 0 0 0 0 0 0 0 0 0 0 0 0 0 1 1 1 1 1 1 1 0 0 0 0 0 0 0 0 0 0 0 0 0 0 0 0 0
0 0 0 0 0 0 0 0 0 0 0 0 0 0 0 0 0 0 0 0 0 0 0 0 0 0 0 1 1 1 1 1 0 0 0 0 0 0 0 0 0 0 0 0 0 0 0 0 0
0 0 0 0 0 0 0 0 0 0 0 0 0 0 0 0 0 0 0 0 0 0 0 0 0 0 0 0 1 1 1 1 0 0 0 0 0 0 0 0 0 0 0 0 0 0 0 0 0
0 0 0 0 0 0 0 0 0 0 0 0 0 0 0 0 0 0 0 0 0 0 0 0 0 0 0 0 0 1 1 1 0 0 0 0 0 0 0 0 0 0 0 0 0 0 0 0 0
0 0 0 0 0 0 0 0 0 0 0 0 0 0 0 0 0 0 0 0 0 0 0 0 0 0 0 0 0 0 0 0 0 0 0 0 0 0 0 0 0 0 0 0 0 0 0 0 0
0 0 0 0 0 0 0 0 0 0 0 0 0 0 0 0 0 0 0 0 0 0 0 0 0 0 0 0 0 0 0 0 0 0 0 0 0 0 0 0 0 0 0 0 0 0 0 0 0
0 0 0 0 0 0 0 0 0 0 0 0 0 0 0 0 0 0 0 0 0 0 0 0 0 0 0 0 0 0 0 0 0 0 0 0 0 0 0 0 0 0 0 0 0 0 0 0 0
0 0 0 0 0 0 0 0 0 0 0 0 0 0 0 0 0 0 0 0 0 0 0 0 0 0 0 0 0 0 0 0 0 0 0 0 0 0 0 0 0 0 0 0 0 0 0 0 0
0 0 0 0 0 0 0 0 0 0 0 0 0 0 0 0 0 0 0 0 0 0 0 0 0 0 0 0 0 0 0 0 0 0 0 0 0 0 0 0 0 0 0 0 0 0 0 0 0
0 0 0 0 0 0 0 0 0 0 0 0 0 0 -0 0 0 0 0 0 0 0 0 0 0 0 0 0 0 0 0 0 0 0 0 0 0 0 0 0 0 0 0 0 0 0 0 0 0
0 0 0 0 0 0 0 0 0 0 0 0 0 0 -0 0 0 0 0 0 0 0 0 0 0 0 0 0 0 0 0 0 0 0 0 0 0 0 0 0 0 0 0 0 0 0 0 0 0
0 0 0 0 0 0 0 0 0 0 0 0 0 -0 -0 0 0 0 0 0 0 0 0 0 0 0 0 0 0 0 0 0 0 0 0 0 0 0 0 0 0 0 0 0 0 0 0 0 0
0 0 0 0 0 0 0 0 0 0 0 0 -0 -0 -0 0 0 0 0 0 0 0 0 0 0 0 0 0 0 0 0 0 0 0 0 0 0 0 0 0 0 0 0 0 0 0 0 0 0
0 0 0 0 0 0 0 0 0 0 0 0 -0 -0 -0 0 0 0 0 0 0 0 0 0 0 0 0 0 0 0 0 0 0 0 0 0 0 0 0 0 0 0 0 0 0 0 0 0 0
0 0 0 0 0 0 0 0 0 0 0 0 -0 -0 -0 0 0 0 0 0 0 0 0 0 0 0 0 0 0 0 0 0 0 0 0 0 0 0 0 0 0 0 0 0 0 0 0 0 0
0 0 0 0 0 0 0 0 0 0 0 0 -0 -0 -0 0 0 0 0 0 0 0 0 0 0 0 0 0 0 0 0 0 0 0 0 0 0 0 0 0 0 0 0 0 0 0 0 0 0
0 0 0 0 0 0 0 0 0 0 0 0 0 -0 -0 0 0 0 0 0 0 0 0 0 0 0 0 0 0 0 0 0 0 0 0 0 0 0 0 0 0 0 0 0 0 0 0 0 0
0 0 0 0 0 0 0 0 0 0 0 0 0 -0 -0 -0 0 0 0 0 0 0 0 0 0 0 0 0 0 0 0 0 0 0 0 0 0 0 0 0 0 0 0 0 0 0 0 0 0
0 0 0 0 0 0 0 0 0 0 0 0 0 -0 -0 -0 0 0 0 0 0 0 0 0 0 0 0 0 0 0 0 0 0 0 0 0 0 0 0 0 0 0 0 0 0 0 0 0 0
0 0 0 0 0 0 0 0 0 0 0 0 0 0 0 0 0 0 0 0 0 0 0 0 0 0 0 0 0 0 0 0 0 0 0 0 0 0 0 0 0 0 0 0 0 0 0 0 0
0 0 0 0 0 0 0 0 0 0 0 0 0 0 0 0 0 0 0 0 0 0 0 0 0 0 0 0 0 0 0 0 0 0 0 0 0 0 0 0 0 0 0 0 0 0 0 0 0
0 0 0 0 0 0 0 0 0 0 0 0 0 0 0 0 0 0 0 0 0 0 0 0 0 0 0 0 0 0 0 0 0 0 0 0 0 0 0 0 0 0 0 0 0 0 0 0 0
0 0 0 0 0 0 0 0 0 0 0 0 0 0 0 0 0 0 0 0 0 0 0 0 0 0 0 0 0 0 0 0 0 0 0 0 0 0 0 0 0 0 0 0 0 0 0 0 0
0 0 0 0 0 0 0 0 0 0 0 0 0 0 0 0 0 -0 -0 -0 -0 0 0 0 0 0 0 0 0 0 0 0 0 0 0 0 0 0 0 0 0 0 0 0 0 0 0 0 0
0 0 0 0 0 0 0 0 0 0 0 -0 -0 -0 -0 0 0 -0 -0 -0 -0 0 0 0 0 0 0 0 0 0 0 0 0 0 0 0 0 0 0 0 0 0 0 0 0 0 0 0 0
0 0 0 0 0 0 0 0 0 0 0 -0 -0 -0 -0 0 0 -0 -0 -0 -0 -0 0 0 0 0 0 0 0 0 0 0 0 0 0 0 0 0 0 0 0 0 0 0 0 0 0 0 0
Wind_Speed
10 10 7 2 3 5 7 6 3 1 2 4 5 4 5 4 4 5 2 4 4 6 8 8 7 6 6 5 5 5 6 6 6 7 8 8 8 8 8 8 8 8 9 9 10 11 11 11 11
10 8 4 3 4 6 6 7 4 1 3 3 1 1 2 2 5 7 3 4 4 5 7 7 7 6 5 5 5 6 6 6 6 6 7 7 7 8 8 8 8 8 9 9 10 11 11 12 12
11 8 4 4 6 5 2 2 4 5 4 2 1 1 2 2 5 4 4 3 3 5 6 8 8 6 5 4 5 6 5 5 5 6 6 7 7 7 8 8 8 8 8 8 9 10 11 11 11
5 3 4 6 11 7 4 1 4 2 1 0 1 1 2 4 4 4 4 3 3 4 6 7 8 6 4 4 5 5 5 5 5 6 6 6 7 7 8 8 8 8 8 9 9 10 11 11 11
4 4 6 8 11 8 5 2 1 2 1 1 1 2 1 4 6 5 4 3 3 4 5 6 7 6 4 4 4 5 5 5 6 6 6 6 7 7 7 7 8 8 8 8 9 11 11 11 11
3 4 6 9 9 7 4 2 2 3 3 2 2 2 1 4 5 4 3 3 3 3 4 4 6 6 5 5 5 5 6 6 6 6 6 7 7 7 8 8 8 8 9 9 9 11 11 11 11
4 4 7 9 7 4 1 2 2 3 4 3 4 3 2 3 4 3 4 4 3 3 3 2 3 4 5 5 5 5 6 6 6 7 7 7 7 8 9 8 8 8 9 9 10 10 11 11 11
4 4 7 7 7 4 1 1 2 4 4 3 3 3 1 3 4 4 4 4 3 2 1 1 2 3 3 4 6 6 6 6 7 7 6 6 7 8 8 8 9 9 9 10 10 10 11 11 11
4 4 6 5 4 1 3 2 2 3 5 5 4 4 2 3 4 3 3 3 2 2 1 1 1 2 2 3 4 5 6 6 7 6 6 5 4 5 6 8 9 10 10 10 11 10 11 10 9
4 5 5 3 5 5 4 4 5 4 6 6 5 4 3 2 3 4 4 3 3 2 1 1 1 1 1 2 2 3 4 4 4 4 5 4 4 4 5 7 9 10 10 10 11 11 10 8 5
5 6 5 5 5 6 7 7 6 7 8 7 5 4 4 5 5 4 5 4 4 2 1 1 1 1 1 1 1 2 2 3 4 5 4 4 3 2 2 2 4 5 7 5 6 7 5 5 5
7 7 7 6 5 6 7 7 7 9 9 6 5 5 6 6 6 5 5 4 4 3 2 1 2 2 1 1 2 2 2 2 2 3 4 3 2 2 2 2 3 3 3 4 4 4 6 6 7
10 8 8 6 6 7 9 11 11 12 11 8 6 6 7 7 6 5 4 4 4 3 2 2 2 2 2 1 2 2 2 2 3 3 3 3 2 3 3 2 3 3 3 4 4 5 6 7 7
5 7 8 9 9 8 10 12 10 11 8 7 7 7 7 7 7 5 4 4 4 3 3 2 2 2 2 2 2 2 2 2 3 3 3 3 3 3 3 3 3 3 3 4 4 5 5 5 5
5 8 10 10 9 5 5 11 11 10 7 8 7 7 7 7 6 5 4 4 3 3 3 3 3 3 2 2 3 3 3 2 2 3 4 3 3 3 3 3 3 3 4 4 3 4 3 4 5
5 6 7 5 6 5 4 10 5 4 6 8 7 6 6 6 5 4 4 3 3 3 3 2 3 3 3 2 2 2 2 2 2 3 3 4 3 3 3 3 3 3 3 3 3 3 3 4 4
6 6 7 4 6 5 7 10 7 5 6 9 8 6 5 4 4 3 2 2 2 2 2 2 3 3 3 2 2 2 2 2 2 2 3 4 4 4 3 3 3 3 3 3 4 3 3 4 4
4 6 6 5 4 5 9 13 11 9 9 10 8 6 4 4 3 2 1 1 2 2 2 2 2 2 2 2 1 1 2 2 2 2 3 4 4 4 3 3 4 4 3 3 3 4 3 3 4
7 7 9 9 5 5 10 14 13 10 9 7 5 4 4 4 2 1 1 1 2 2 2 3 3 2 2 2 2 2 3 3 3 3 4 4 5 5 4 3 4 4 4 4 4 4 4 4 3
10 10 11 9 4 6 10 15 14 11 8 5 4 4 3 2 1 1 1 0 2 2 3 3 3 3 2 2 2 2 3 3 3 3 4 5 5 5 4 4 4 4 4 5 5 4 3 3 4
10 10 9 9 9 7 8 10 8 5 4 2 4 4 3 2 2 1 1 1 2 2 2 3 3 3 3 2 2 2 2 2 2 3 3 5 5 5 5 5 5 5 5 5 6 6 6 5 4
8 5 7 8 6 5 3 7 6 4 3 4 4 3 2 1 0 0 0 1 2 3 2 3 3 3 2 3 3 3 4 4 4 3 3 5 5 5 5 6 5 5 5 5 6 6 5 6 5
5 3 6 7 6 6 5 6 8 5 5 5 4 3 2 1 1 1 0 1 2 2 2 2 3 3 3 3 4 4 5 4 3 3 4 4 4 5 6 6 5 5 5 5 6 6 6 6 6
3 3 5 5 2 6 7 7 7 3 5 4 2 2 2 2 2 1 1 1 2 2 2 2 3 4 4 5 4 5 5 5 5 4 5 4 4 4 6 6 5 5 5 6 6 6 7 7 7
3 2 1 2 4 7 5 6 6 2 2 4 3 2 2 2 1 1 2 2 3 3 2 3 4 4 4 5 5 5 5 6 6 6 5 5 4 4 6 6 5 5 5 6 6 6 7 7 8
8 5 4 3 4 3 2 6 4 2 4 5 4 3 2 2 2 2 2 2 3 4 3 3 3 4 5 5 5 4 5 4 4 5 5 5 4 5 6 6 6 6 6 6 6 6 6 6 8
6 6 3 2 3 4 6 5 3 3 4 4 3 2 1 1 1 2 2 3 3 4 4 3 3 4 4 4 4 5 5 5 5 5 5 4 4 4 6 6 6 6 6 7 7 6 7 7 7
4 3 3 3 3 5 6 6 4 4 3 2 2 1 0 1 2 3 3 3 4 4 4 4 3 3 4 4 4 4 4 5 5 4 5 5 5 5 5 6 7 7 7 7 7 6 6 7 7
7 5 5 4 4 3 4 4 1 3 4 3 2 1 0 1 2 3 3 3 4 4 4 5 4 4 4 4 3 3 4 4 4 4 5 5 5 5 5 5 6 6 7 7 7 7 7 7 7
7 7 7 5 5 4 4 5 1 4 3 2 1 1 2 2 2 3 3 4 4 5 5 5 5 5 4 3 3 3 3 3 4 4 4 4 4 5 5 5 6 6 7 7 8 8 8 8 8
Wind_Direction
285 255 242 245 241 233 243 242 237 91 43 36 19 353 351 359 28 90 127 37 44 89 113 128 127 132 136 138 137 138 141 142 148 155 156 160 162 161 159 158 157 153 147 145 142 137 134 130 125
285 257 239 238 241 237 234 224 221 147 71 48 27 304 314 22 69 93 79 39 47 85 111 122 130 136 139 144 146 146 147 149 149 156 160 165 169 169 169 168 164 159 154 149 147 142 139 134 130
272 258 237 231 232 238 254 61 73 64 60 30 323 311 328 28 53 75 67 38 47 82 103 123 130 138 148 157 157 154 157 159 155 158 165 170 174 176 175 175 171 167 162 157 151 146 143 140 137
256 231 243 244 248 252 279 15 62 78 112 59 307 316 82 59 53 62 58 33 41 77 97 122 133 138 148 164 166 163 165 167 165 166 170 174 179 181 178 177 175 171 167 161 157 153 149 147 145
249 239 234 240 247 256 278 329 47 275 229 187 262 290 25 77 74 64 49 24 28 62 94 121 139 150 161 170 176 174 175 175 174 177 178 179 180 178 175 174 175 175 172 169 167 160 156 153 152
237 241 242 241 242 237 229 252 270 262 280 276 277 269 267 106 76 42 26 11 22 46 81 121 145 162 174 185 187 187 186 186 185 186 189 188 185 182 180 180 180 181 177 174 174 169 165 160 161
253 255 255 266 270 265 258 43 315 306 296 319 335 298 220 87 63 32 13 1 16 39 60 115 153 169 183 193 193 198 195 193 195 196 198 198 194 191 187 185 185 185 182 178 177 175 171 170 167
282 276 258 255 259 260 38 46 10 332 310 343 332 294 317 44 34 12 359 344 358 14 47 148 179 171 185 202 204 201 200 197 198 198 200 199 197 197 190 188 188 188 187 184 180 177 175 175 173
283 256 254 263 287 334 29 338 336 330 295 287 277 281 314 357 357 339 321 311 315 321 321 268 221 190 193 202 203 199 200 199 197 194 195 191 194 194 191 192 189 189 189 188 185 182 179 177 179
225 246 252 313 340 335 335 321 314 284 271 268 264 270 296 314 310 296 291 290 289 279 272 292 299 254 220 218 197 200 197 192 196 195 187 191 199 197 196 187 190 192 192 190 189 187 181 177 181
221 244 278 305 333 331 312 298 286 273 265 264 278 297 313 311 296 285 286 289 280 269 260 248 250 276 254 227 218 209 200 191 197 197 192 190 187 182 179 166 177 188 190 188 185 184 187 186 183
250 257 275 288 315 306 294 290 285 267 266 287 299 298 295 287 284 279 279 284 283 270 254 249 238 225 237 238 231 219 206 196 196 193 188 183 174 171 167 173 175 179 188 186 183 191 195 194 189
243 259 267 277 280 280 279 271 272 267 268 267 267 268 271 276 277 279 281 283 279 275 264 248 238 218 211 228 244 241 225 209 198 192 196 186 174 180 176 185 182 188 190 191 195 199 197 195 194
286 290 282 272 267 267 269 271 260 255 253 251 244 252 258 265 273 278 275 274 272 262 263 250 236 217 209 214 222 236 228 221 205 192 201 192 180 185 182 187 189 195 197 200 202 203 201 195 191
288 283 272 247 239 242 280 271 239 243 245 251 247 249 251 252 259 263 256 253 262 261 264 259 236 218 214 217 227 230 221 217 216 198 198 195 188 189 186 188 193 199 202 202 206 207 201 197 196
243 249 257 222 211 197 227 269 264 224 237 250 254 254 245 245 246 252 252 243 251 247 244 257 262 222 215 214 227 234 233 214 218 205 198 197 194 194 193 193 198 200 202 201 201 202 198 200 200
222 243 248 238 200 205 225 264 272 261 251 255 257 254 248 245 239 242 245 240 242 241 241 229 251 225 214 218 223 233 241 231 221 214 201 198 194 197 202 201 204 199 201 207 209 205 196 199 200
239 253 268 263 209 241 254 266 274 269 257 253 254 247 238 244 243 247 256 269 261 250 246 236 242 227 208 205 219 236 243 242 234 223 216 202 199 200 201 207 207 201 200 207 204 208 204 202 198
286 285 284 285 289 274 264 272 274 267 262 256 246 232 223 237 231 213 237 283 286 274 251 237 237 244 213 191 204 217 234 228 230 228 236 215 207 205 201 210 208 205 205 208 208 207 205 209 192
258 270 276 285 291 293 277 276 271 260 248 233 227 221 209 232 238 227 212 251 303 290 283 259 237 235 223 204 211 218 233 228 227 223 233 224 212 212 213 206 208 208 209 209 211 205 205 215 193
249 253 270 286 310 276 278 284 257 233 229 206 223 221 211 213 238 224 206 278 325 315 293 279 254 237 224 212 212 230 245 241 241 231 235 227 215 215 216 213 209 210 209 210 210 206 206 213 215
257 257 271 283 291 284 281 290 271 240 208 201 210 198 198 198 283 15 23 340 319 309 291 264 255 248 229 207 211 215 229 232 239 229 236 230 218 218 220 215 214 212 213 214 214 215 211 205 213
244 296 273 268 267 277 240 249 273 232 222 211 197 173 167 146 65 38 19 286 294 303 293 261 254 250 239 223 219 220 231 232 232 236 238 234 225 221 222 218 216 217 214 217 220 220 216 211 215
246 271 265 250 251 259 222 218 272 228 214 190 155 120 114 89 67 38 355 287 294 298 286 262 248 250 243 230 230 225 230 231 229 237 240 233 225 221 220 220 215 218 216 217 221 222 221 222 222
202 206 264 229 218 243 203 214 248 263 91 116 119 107 95 75 48 16 356 344 323 308 293 269 256 251 246 236 236 235 234 230 226 230 233 230 226 226 221 222 217 217 218 222 223 223 224 223 224
198 199 194 227 248 275 226 234 244 142 95 99 109 113 85 43 16 354 341 340 330 317 303 289 266 266 255 240 241 244 242 230 225 232 236 230 227 228 226 220 221 221 219 227 225 227 227 227 227
191 211 234 269 284 271 244 231 220 127 115 109 106 103 76 354 359 348 346 341 325 315 306 296 290 284 273 257 250 245 244 236 231 233 236 231 231 238 229 225 224 226 223 224 225 228 226 226 227
242 202 177 196 235 257 257 237 218 163 148 131 127 120 329 335 349 346 337 327 321 315 314 311 302 294 289 265 251 256 252 241 234 231 236 236 234 235 228 229 227 226 226 226 228 228 226 229 230
190 204 202 207 226 234 268 263 77 130 146 154 168 174 342 354 343 331 324 327 330 328 326 320 311 307 303 278 256 255 258 246 237 238 239 238 240 234 232 234 234 231 229 228 230 231 227 231 235
206 203 190 195 226 224 252 268 22 101 107 102 72 21 10 357 342 333 329 331 337 333 329 322 320 312 303 293 278 262 262 255 244 245 247 247 246 240 235 236 237 237 234 228 230 232 233 232 233